{"data":{"norad_id":66113,"intl_designator":"2025-236AD","name":"STARLINK-35491","alt_names":[],"object_type":"PAYLOAD","status":"ACTIVE","operator":null,"country":"US","launch_date":"2025-10-19","launch_site_code":"AFWTR","launch_vehicle":null,"mission":null,"orbit_class":"UNKNOWN","rcs_meters":null,"size_class":null,"mass_kg":null,"dimensions":null,"purposes":["comms"],"wikipedia_slug":null,"has_3d_model":false,"image_url":null,"decayed_at":null,"tle_current":{"epoch":"2026-05-25T04:40:52.070304Z","epoch_age_seconds":61789,"freshness":"FRESH","line1":"1 66113U 25236AD  26145.19504711  .00014987  00000+0  51693-3 0  9996","line2":"2 66113  53.1568 108.8109 0001122  92.0738 268.0392 15.30210654 34654","mean_motion":15.30210654,"eccentricity":0.0001122,"inclination_deg":53.1568,"raan_deg":108.8109,"arg_perigee_deg":92.0738,"mean_anomaly_deg":268.0392,"bstar":0.00051693,"rev_number":3465,"period_min":94.104690503612,"perigee_km":474.41431614726,"apogee_km":475.95220121331,"semimajor_km":6853.3202586803,"source":"CELESTRAK","updated_at":"2026-05-25T13:38:21.060681Z"}}}